Location: New Plymouth
(39.0670°S, 174.0830°E)
Time: 15:28:38
(UTC+13:00)

NOAA 19 - Pass Details

Date: 21 August 2019
Orbit: 840 x 862 km, 99.2° (Epoch: 17 October)

Event Time Altitude Azimuth Distance (km) Brightness Sun altitude
Rises 04:56:06 0° 14° (NNE) 3,386 8.5 -25.4°
Reaches altitude 10° 04:58:27 10° 13° (NNE) 2,459 7.7 -24.9°
Maximum altitude 05:03:55 84° 285° (WNW) 860 5.1 -23.8°
Drops below altitude 10° 05:09:28 10° 195° (SSW) 2,494 7.5 -22.8°
Sets 05:11:51 0° 194° (SSW) 3,438 8.3 -22.3°
